Regional Weather Roundup
Issued by NWS Sioux Falls, SD

Home | Current Version | Previous Version | Text Only | Print | Product List | Glossary Off
Versions: 1 2 3 4 5 6 7 8 9 10 11 12 13 14 15 16 17 18 19 20 21 22 23 24 25 26 27 28 29 30 31 32 33 34 35 36 37 38 39 40 41 42 43 44 45 46 47 48 49 50

000
ASUS43 KFSD 040302
RWRFSD

WEATHER ROUNDUP FOR SE SOUTH DAKOTA/SW MINNESOTA/NW IOWA
NATIONAL WEATHER SERVICE SIOUX FALLS SD
1000 PM CDT FRI JUL 03 2015

NOTE: "FAIR" INDICATES FEW OR NO CLOUDS BELOW 12,000 FEET WITH NO
SIGNIFICANT WEATHER AND OR OBSTRUCTIONS TO VISIBILITY.


SDZ038>040-050-052>070-040400-
SOUTHEAST SOUTH DAKOTA

CITY           SKY/WX    TMP DP  RH WIND       PRES   REMARKS
BROOKINGS      CLEAR     72  64  78 SW6       29.96R
CHAMBERLAIN    NOT AVBL
HURON          CLEAR     74  66  76 S6        29.91S
MADISON        FAIR      68  68 100 SW6       29.96R
MITCHELL       CLEAR     71  66  84 S6        29.93S
SIOUX FALLS    MOCLDY    72  63  73 SW3       29.95R
WINNER         FAIR      72  62  71 SE9       29.93S
YANKTON        CLEAR     72  63  73 S3        29.94R
$$

MNZ071-072-080-081-089-090-097-098-040400-
SOUTHWEST MINNESOTA

CITY           SKY/WX    TMP DP  RH WIND       PRES   REMARKS
FAIRMONT       CLEAR     66  55  68 CALM      29.93S
JACKSON        CLEAR     70  59  68 SW6       29.96R
LUVERNE        CLEAR     68  63  83 SW3       29.96R
MARSHALL       MOCLDY    73  64  73 S5        29.91R
MONTEVIDEO     PTCLDY    72  64  78 CALM      29.92R
PIPESTONE      CLEAR     68  64  88 SW3       29.96R
REDWOOD FALLS  FAIR      71  63  75 S5        29.91R
TRACY          MOCLDY    72  65  79 SW5       29.94R
WINDOM         CLEAR     70  61  73 SW5       29.95R
WORTHINGTON    PTCLDY    68  57  68 SW7       29.96R
$$

IAZ001>003-012>014-020>022-031-032-NEZ013-014-SDZ071-040400-
NORTHWEST IOWA

CITY           SKY/WX    TMP DP  RH WIND       PRES   REMARKS
DENISON        CLOUDY    63  61  94 CALM      29.96R
ESTHERVILLE    CLEAR     64  59  83 SW7       29.95R
SIOUX CITY     CLEAR     68  60  75 E6        29.96R
SPENCER        CLEAR     65  58  78 SW6       29.96R
$$

ABBREVIATIONS USED IN REMARKS
   TC - TEMPERATURE IN CELSIUS
  WCI - WIND CHILL INDEX
   HX - HEAT INDEX
  VSB - VISIBILITY



USA.gov is the U.S. government's official web portal to all federal, state and local government web resources and services.